Year,Month,Day,Hour,Minute,Value (Times are PST for temperature in C)
2014,10,01,00,00,13.50
2014,10,01,00,01,13.50
2014,10,01,00,02,13.50
2014,10,01,00,03,13.50
2014,10,01,00,04,13.50
2014,10,01,00,05,13.50
2014,10,01,00,06,13.50
2014,10,01,00,07,13.50
2014,10,01,00,08,13.50
2014,10,01,00,09,13.50
2014,10,01,00,10,13.50
2014,10,01,00,11,13.50
2014,10,01,00,12,13.50
2014,10,01,00,13,13.50
2014,10,01,00,14,13.50
2014,10,01,00,15,13.50
2014,10,01,00,16,13.50
2014,10,01,00,17,13.50
2014,10,01,00,18,13.50
2014,10,01,00,19,13.40
2014,10,01,00,20,13.40
2014,10,01,00,21,13.40
2014,10,01,00,22,13.40
2014,10,01,00,23,13.40
2014,10,01,00,24,13.40
2014,10,01,00,25,13.40
2014,10,01,00,26,13.40
2014,10,01,00,27,13.40
2014,10,01,00,28,13.40
2014,10,01,00,29,13.40
2014,10,01,00,30,13.40
2014,10,01,00,31,13.40
2014,10,01,00,32,13.40
2014,10,01,00,33,13.40
2014,10,01,00,34,13.40
2014,10,01,00,35,13.40
2014,10,01,00,36,13.40
2014,10,01,00,37,13.40
2014,10,01,00,38,13.40
2014,10,01,00,39,13.40
2014,10,01,00,40,13.40
2014,10,01,00,41,13.40
2014,10,01,00,42,13.40
2014,10,01,00,43,13.40
2014,10,01,00,44,13.40
2014,10,01,00,45,13.40
2014,10,01,00,46,13.40
2014,10,01,00,47,13.40
2014,10,01,00,48,13.40
2014,10,01,00,49,13.40
2014,10,01,00,50,13.40
2014,10,01,00,51,13.40
2014,10,01,00,52,13.40
2014,10,01,00,53,13.40
2014,10,01,00,54,13.40
2014,10,01,00,55,13.40
2014,10,01,00,56,13.40
2014,10,01,00,57,13.40
2014,10,01,00,58,13.40
2014,10,01,00,59,13.40
2014,10,01,01,00,13.40
2014,10,01,01,01,13.30
2014,10,01,01,02,13.30
2014,10,01,01,03,13.30
2014,10,01,01,04,13.30
2014,10,01,01,05,13.30
2014,10,01,01,06,13.30
2014,10,01,01,07,13.30
2014,10,01,01,08,13.30
2014,10,01,01,09,13.30
2014,10,01,01,10,13.30
2014,10,01,01,11,13.30
2014,10,01,01,12,13.30
2014,10,01,01,13,13.30
2014,10,01,01,14,13.30
2014,10,01,01,15,13.30
2014,10,01,01,16,13.30
2014,10,01,01,17,13.30
2014,10,01,01,18,13.30
2014,10,01,01,19,13.30
2014,10,01,01,20,13.20
2014,10,01,01,21,13.20
2014,10,01,01,22,13.20
2014,10,01,01,23,13.20
2014,10,01,01,24,13.20
2014,10,01,01,25,13.20
2014,10,01,01,26,13.20
2014,10,01,01,27,13.20
2014,10,01,01,28,13.20
2014,10,01,01,29,13.20
2014,10,01,01,30,13.20
2014,10,01,01,31,13.20
2014,10,01,01,32,13.20
2014,10,01,01,33,13.20
2014,10,01,01,34,13.20
2014,10,01,01,35,13.20
2014,10,01,01,36,13.30
2014,10,01,01,37,13.20
2014,10,01,01,38,13.30
2014,10,01,01,39,13.30
2014,10,01,01,40,13.30
2014,10,01,01,41,13.30
2014,10,01,01,42,13.30
2014,10,01,01,43,13.30
2014,10,01,01,44,13.30
2014,10,01,01,45,13.30
2014,10,01,01,46,13.30
2014,10,01,01,47,13.30
2014,10,01,01,48,13.30
2014,10,01,01,49,13.30
2014,10,01,01,50,13.30
2014,10,01,01,51,13.30
2014,10,01,01,52,13.30
2014,10,01,01,53,13.30
2014,10,01,01,54,13.30
2014,10,01,01,55,13.30
2014,10,01,01,56,13.30
2014,10,01,01,57,13.30
2014,10,01,01,58,13.30
2014,10,01,01,59,13.30
2014,10,01,02,00,13.30
2014,10,01,02,01,13.30
2014,10,01,02,02,13.30
2014,10,01,02,03,13.30
2014,10,01,02,04,13.30
2014,10,01,02,05,13.30
2014,10,01,02,06,13.30
2014,10,01,02,07,13.30
2014,10,01,02,08,13.40
2014,10,01,02,09,13.40
2014,10,01,02,10,13.30
2014,10,01,02,11,13.30
2014,10,01,02,12,13.30
2014,10,01,02,13,13.30
2014,10,01,02,14,13.30
2014,10,01,02,15,13.30
2014,10,01,02,16,13.30
2014,10,01,02,17,13.30
2014,10,01,02,18,13.30
2014,10,01,02,19,13.30
2014,10,01,02,20,13.30
2014,10,01,02,21,13.30
2014,10,01,02,22,13.30
2014,10,01,02,23,13.30
2014,10,01,02,24,13.30
2014,10,01,02,25,13.40
2014,10,01,02,26,13.40
2014,10,01,02,27,13.40
2014,10,01,02,28,13.40
2014,10,01,02,29,13.40
2014,10,01,02,30,13.40
2014,10,01,02,31,13.40
2014,10,01,02,32,13.40
2014,10,01,02,33,13.40
2014,10,01,02,34,13.40
2014,10,01,02,35,13.40
2014,10,01,02,36,13.40
2014,10,01,02,37,13.40
2014,10,01,02,38,13.40
2014,10,01,02,39,13.40
2014,10,01,02,40,13.40
2014,10,01,02,41,13.40
2014,10,01,02,42,13.40
2014,10,01,02,43,13.40
2014,10,01,02,44,13.40
2014,10,01,02,45,13.40
2014,10,01,02,46,13.40
2014,10,01,02,47,13.40
2014,10,01,02,48,13.40
2014,10,01,02,49,13.40
2014,10,01,02,50,13.40
2014,10,01,02,51,13.40
2014,10,01,02,52,13.40
2014,10,01,02,53,13.40
2014,10,01,02,54,13.40
2014,10,01,02,55,13.40
2014,10,01,02,56,13.40
2014,10,01,02,57,13.40
2014,10,01,02,58,13.40
2014,10,01,02,59,13.40
2014,10,01,03,00,13.40
2014,10,01,03,01,13.40
2014,10,01,03,02,13.40
2014,10,01,03,03,13.40
2014,10,01,03,04,13.40
2014,10,01,03,05,13.40
2014,10,01,03,06,13.40
2014,10,01,03,07,13.40
2014,10,01,03,08,13.40
2014,10,01,03,09,13.40
2014,10,01,03,10,13.40
2014,10,01,03,11,13.50
2014,10,01,03,12,13.40
2014,10,01,03,13,13.40
2014,10,01,03,14,13.50
2014,10,01,03,15,13.50
2014,10,01,03,16,13.40
2014,10,01,03,17,13.50
2014,10,01,03,18,13.40
2014,10,01,03,19,13.40
2014,10,01,03,20,13.40
2014,10,01,03,21,13.40
2014,10,01,03,22,13.40
2014,10,01,03,23,13.40
2014,10,01,03,24,13.40
2014,10,01,03,25,13.40
2014,10,01,03,26,13.40
2014,10,01,03,27,13.40
2014,10,01,03,28,13.40
2014,10,01,03,29,13.40
2014,10,01,03,30,13.40
2014,10,01,03,31,13.40
2014,10,01,03,32,13.30
2014,10,01,03,33,13.30
2014,10,01,03,34,13.30
2014,10,01,03,35,13.30
2014,10,01,03,36,13.30
2014,10,01,03,37,13.30
2014,10,01,03,38,13.30
2014,10,01,03,39,13.30
2014,10,01,03,40,13.30
2014,10,01,03,41,13.30
2014,10,01,03,42,13.30
2014,10,01,03,43,13.30
2014,10,01,03,44,13.30
2014,10,01,03,45,13.30
2014,10,01,03,46,13.20
2014,10,01,03,47,13.20
2014,10,01,03,48,13.20
2014,10,01,03,49,13.20
2014,10,01,03,50,13.20
2014,10,01,03,51,13.20
2014,10,01,03,52,13.20
2014,10,01,03,53,13.20
2014,10,01,03,54,13.20
2014,10,01,03,55,13.20
2014,10,01,03,56,13.20
2014,10,01,03,57,13.10
2014,10,01,03,58,13.10
2014,10,01,03,59,13.10
2014,10,01,04,00,13.00
2014,10,01,04,01,13.00
2014,10,01,04,02,12.90
2014,10,01,04,03,12.90
2014,10,01,04,04,12.80
2014,10,01,04,05,12.80
2014,10,01,04,06,12.70
2014,10,01,04,07,12.70
2014,10,01,04,08,12.70
2014,10,01,04,09,12.60
2014,10,01,04,10,12.60
2014,10,01,04,11,12.50
2014,10,01,04,12,12.50
2014,10,01,04,13,12.40
2014,10,01,04,14,12.40
2014,10,01,04,15,12.30
2014,10,01,04,16,12.20
2014,10,01,04,17,12.20
2014,10,01,04,18,12.10
2014,10,01,04,19,12.10
2014,10,01,04,20,12.10
2014,10,01,04,21,12.00
2014,10,01,04,22,12.00
2014,10,01,04,23,11.90
2014,10,01,04,24,11.90
2014,10,01,04,25,11.80
2014,10,01,04,26,11.80
2014,10,01,04,27,11.80
2014,10,01,04,28,11.80
2014,10,01,04,29,11.80
2014,10,01,04,30,11.80
2014,10,01,04,31,11.70
2014,10,01,04,32,11.70
2014,10,01,04,33,11.70
2014,10,01,04,34,11.70
2014,10,01,04,35,11.70
2014,10,01,04,36,11.70
2014,10,01,04,37,11.70
2014,10,01,04,38,11.70
2014,10,01,04,39,11.70
2014,10,01,04,40,11.80
2014,10,01,04,41,11.80
2014,10,01,04,42,11.80
2014,10,01,04,43,11.80
2014,10,01,04,44,11.80
2014,10,01,04,45,11.80
2014,10,01,04,46,11.80
2014,10,01,04,47,11.80
2014,10,01,04,48,11.80
2014,10,01,04,49,11.70
2014,10,01,04,50,11.70
2014,10,01,04,51,11.60
2014,10,01,04,52,11.60
2014,10,01,04,53,11.50
2014,10,01,04,54,11.40
2014,10,01,04,55,11.30
2014,10,01,04,56,11.30
2014,10,01,04,57,11.20
2014,10,01,04,58,11.20
2014,10,01,04,59,11.10
2014,10,01,05,00,11.10
2014,10,01,05,01,11.10
2014,10,01,05,02,11.10
2014,10,01,05,03,11.00
2014,10,01,05,04,11.10
2014,10,01,05,05,11.10
2014,10,01,05,06,11.10
2014,10,01,05,07,11.00
2014,10,01,05,08,11.00
2014,10,01,05,09,11.00
2014,10,01,05,10,10.90
2014,10,01,05,11,10.90
2014,10,01,05,12,10.90
2014,10,01,05,13,10.90
2014,10,01,05,14,10.90
2014,10,01,05,15,10.80
2014,10,01,05,16,10.80
2014,10,01,05,17,10.80
2014,10,01,05,18,10.80
2014,10,01,05,19,10.80
2014,10,01,05,20,10.80
2014,10,01,05,21,10.80
2014,10,01,05,22,10.70
2014,10,01,05,23,10.70
2014,10,01,05,24,10.70
2014,10,01,05,25,10.70
2014,10,01,05,26,10.70
2014,10,01,05,27,10.70
2014,10,01,05,28,10.70
2014,10,01,05,29,10.70
2014,10,01,05,30,10.70
2014,10,01,05,31,10.70
2014,10,01,05,32,10.70
2014,10,01,05,33,10.70
2014,10,01,05,34,10.60
2014,10,01,05,35,10.60
2014,10,01,05,36,10.60
2014,10,01,05,37,10.60
2014,10,01,05,38,10.60
2014,10,01,05,39,10.60
2014,10,01,05,40,10.60
2014,10,01,05,41,10.60
2014,10,01,05,42,10.60
2014,10,01,05,43,10.60
2014,10,01,05,44,10.60
2014,10,01,05,45,10.60
2014,10,01,05,46,10.50
2014,10,01,05,47,10.50
2014,10,01,05,48,10.50
2014,10,01,05,49,10.50
2014,10,01,05,50,10.60
2014,10,01,05,51,10.60
2014,10,01,05,52,10.60
2014,10,01,05,53,10.60
2014,10,01,05,54,10.60
2014,10,01,05,55,10.50
2014,10,01,05,56,10.50
2014,10,01,05,57,10.50
2014,10,01,05,58,10.40
2014,10,01,05,59,10.40
2014,10,01,06,00,10.40
2014,10,01,06,01,10.40
2014,10,01,06,02,10.40
2014,10,01,06,03,10.40
2014,10,01,06,04,10.40
2014,10,01,06,05,10.40
2014,10,01,06,06,10.40
2014,10,01,06,07,10.40
2014,10,01,06,08,10.40
2014,10,01,06,09,10.40
2014,10,01,06,10,10.40
2014,10,01,06,11,10.40
2014,10,01,06,12,10.50
2014,10,01,06,13,10.40
2014,10,01,06,14,10.50
2014,10,01,06,15,10.50
2014,10,01,06,16,10.50
2014,10,01,06,17,10.50
2014,10,01,06,18,10.50
2014,10,01,06,19,10.50
2014,10,01,06,20,10.50
2014,10,01,06,21,10.50
2014,10,01,06,22,10.50
2014,10,01,06,23,10.50
2014,10,01,06,24,10.60
2014,10,01,06,25,10.60
2014,10,01,06,26,10.60
2014,10,01,06,27,10.60
2014,10,01,06,28,10.60
2014,10,01,06,29,10.60
2014,10,01,06,30,10.70
2014,10,01,06,31,10.70
2014,10,01,06,32,10.70
2014,10,01,06,33,10.70
2014,10,01,06,34,10.70
2014,10,01,06,35,10.70
2014,10,01,06,36,10.70
2014,10,01,06,37,10.70
2014,10,01,06,38,10.80
2014,10,01,06,39,10.80
2014,10,01,06,40,10.80
2014,10,01,06,41,10.80
2014,10,01,06,42,10.80
2014,10,01,06,43,10.90
2014,10,01,06,44,10.90
2014,10,01,06,45,10.90
2014,10,01,06,46,10.90
2014,10,01,06,47,11.00
2014,10,01,06,48,11.00
2014,10,01,06,49,11.10
2014,10,01,06,50,11.10
2014,10,01,06,51,11.10
2014,10,01,06,52,11.10
2014,10,01,06,53,11.10
2014,10,01,06,54,11.10
2014,10,01,06,55,11.10
2014,10,01,06,56,11.00
2014,10,01,06,57,11.00
2014,10,01,06,58,11.00
2014,10,01,06,59,11.00
2014,10,01,07,00,11.00
2014,10,01,07,01,11.00
2014,10,01,07,02,11.00
2014,10,01,07,03,11.00
2014,10,01,07,04,11.00
2014,10,01,07,05,11.00
2014,10,01,07,06,11.00
2014,10,01,07,07,11.00
2014,10,01,07,08,11.00
2014,10,01,07,09,11.00
2014,10,01,07,10,11.00
2014,10,01,07,11,11.00
2014,10,01,07,12,11.00
2014,10,01,07,13,11.00
2014,10,01,07,14,10.90
2014,10,01,07,15,10.90
2014,10,01,07,16,10.90
2014,10,01,07,17,10.90
2014,10,01,07,18,10.90
2014,10,01,07,19,10.90
2014,10,01,07,20,10.90
2014,10,01,07,21,10.90
2014,10,01,07,22,10.90
2014,10,01,07,23,10.90
2014,10,01,07,24,10.90
2014,10,01,07,25,10.90
2014,10,01,07,26,10.90
2014,10,01,07,27,10.90
2014,10,01,07,28,10.80
2014,10,01,07,29,10.80
2014,10,01,07,30,10.80
2014,10,01,07,31,10.80
2014,10,01,07,32,10.80
2014,10,01,07,33,10.80
2014,10,01,07,34,10.80
2014,10,01,07,35,10.80
2014,10,01,07,36,10.80
2014,10,01,07,37,10.80
2014,10,01,07,38,10.80
2014,10,01,07,39,10.80
2014,10,01,07,40,10.80
2014,10,01,07,41,10.80
2014,10,01,07,42,10.80
2014,10,01,07,43,10.80
2014,10,01,07,44,10.80
2014,10,01,07,45,10.90
2014,10,01,07,46,10.90
2014,10,01,07,47,10.90
2014,10,01,07,48,10.90
2014,10,01,07,49,10.90
2014,10,01,07,50,10.90
2014,10,01,07,51,10.90
2014,10,01,07,52,10.90
2014,10,01,07,53,10.90
2014,10,01,07,54,11.00
2014,10,01,07,55,11.10
2014,10,01,07,56,11.10
2014,10,01,07,57,11.10
2014,10,01,07,58,11.10
2014,10,01,07,59,11.10
2014,10,01,08,00,11.10
2014,10,01,08,01,11.10
2014,10,01,08,02,11.10
2014,10,01,08,03,11.00
2014,10,01,08,04,11.00
2014,10,01,08,05,11.00
2014,10,01,08,06,11.00
2014,10,01,08,07,11.00
2014,10,01,08,08,11.00
2014,10,01,08,09,11.00
2014,10,01,08,10,10.90
2014,10,01,08,11,10.90
2014,10,01,08,12,10.90
2014,10,01,08,13,10.90
2014,10,01,08,14,10.90
2014,10,01,08,15,10.90
2014,10,01,08,16,10.90
2014,10,01,08,17,10.90
2014,10,01,08,18,11.00
2014,10,01,08,19,11.10
2014,10,01,08,20,11.10
2014,10,01,08,21,11.20
2014,10,01,08,22,11.20
2014,10,01,08,23,11.20
2014,10,01,08,24,11.20
2014,10,01,08,25,11.20
2014,10,01,08,26,11.20
2014,10,01,08,27,11.30
2014,10,01,08,28,11.30
2014,10,01,08,29,11.40
2014,10,01,08,30,11.40
2014,10,01,08,31,11.40
2014,10,01,08,32,11.50
2014,10,01,08,33,11.60
2014,10,01,08,34,11.70
2014,10,01,08,35,11.70
2014,10,01,08,36,11.80
2014,10,01,08,37,11.90
2014,10,01,08,38,12.00
2014,10,01,08,39,12.10
2014,10,01,08,40,12.20
2014,10,01,08,41,12.30
2014,10,01,08,42,12.40
2014,10,01,08,43,12.40
2014,10,01,08,44,12.50
2014,10,01,08,45,12.60
2014,10,01,08,46,12.60
2014,10,01,08,47,12.60
2014,10,01,08,48,12.70
2014,10,01,08,49,12.70
2014,10,01,08,50,12.70
2014,10,01,08,51,12.70
2014,10,01,08,52,12.70
2014,10,01,08,53,12.80
2014,10,01,08,54,12.90
2014,10,01,08,55,13.00
2014,10,01,08,56,13.00
2014,10,01,08,57,13.10
2014,10,01,08,58,13.20
2014,10,01,08,59,13.30
2014,10,01,09,00,13.30
2014,10,01,09,01,13.40
2014,10,01,09,02,13.50
2014,10,01,09,03,13.60
2014,10,01,09,04,13.70
2014,10,01,09,05,13.80
2014,10,01,09,06,13.80
2014,10,01,09,07,13.90
2014,10,01,09,08,13.90
2014,10,01,09,09,14.00
2014,10,01,09,10,14.00
2014,10,01,09,11,14.10
2014,10,01,09,12,14.10
2014,10,01,09,13,14.10
2014,10,01,09,14,14.20
2014,10,01,09,15,14.10
2014,10,01,09,16,14.20
2014,10,01,09,17,14.10
2014,10,01,09,18,14.10
2014,10,01,09,19,14.20
2014,10,01,09,20,14.30
2014,10,01,09,21,14.30
2014,10,01,09,22,14.40
2014,10,01,09,23,14.40
2014,10,01,09,24,14.50
2014,10,01,09,25,14.50
2014,10,01,09,26,14.50
2014,10,01,09,27,14.50
2014,10,01,09,28,14.50
2014,10,01,09,29,14.50
2014,10,01,09,30,14.50
2014,10,01,09,31,14.50
2014,10,01,09,32,14.50
2014,10,01,09,33,14.60
2014,10,01,09,34,14.60
2014,10,01,09,35,14.60
2014,10,01,09,36,14.70
2014,10,01,09,37,14.70
2014,10,01,09,38,14.80
2014,10,01,09,39,14.80
2014,10,01,09,40,14.80
2014,10,01,09,41,14.90
2014,10,01,09,42,14.90
2014,10,01,09,43,14.90
2014,10,01,09,44,14.90
2014,10,01,09,45,14.90
2014,10,01,09,46,14.90
2014,10,01,09,47,14.90
2014,10,01,09,48,14.90
2014,10,01,09,49,14.90
2014,10,01,09,50,15.00
2014,10,01,09,51,15.10
2014,10,01,09,52,15.20
2014,10,01,09,53,15.20
2014,10,01,09,54,15.20
2014,10,01,09,55,15.20
2014,10,01,09,56,15.20
2014,10,01,09,57,15.20
2014,10,01,09,58,15.20
2014,10,01,09,59,15.20
2014,10,01,10,00,15.20
2014,10,01,10,01,15.20
2014,10,01,10,02,15.10
2014,10,01,10,03,15.10
2014,10,01,10,04,15.10
2014,10,01,10,05,15.10
2014,10,01,10,06,15.20
2014,10,01,10,07,15.20
2014,10,01,10,08,15.20
2014,10,01,10,09,15.20
2014,10,01,10,10,15.30
2014,10,01,10,11,15.30
2014,10,01,10,12,15.30
2014,10,01,10,13,15.30
2014,10,01,10,14,15.30
2014,10,01,10,15,15.30
2014,10,01,10,16,15.30
2014,10,01,10,17,15.30
2014,10,01,10,18,15.30
2014,10,01,10,19,15.30
2014,10,01,10,20,15.30
2014,10,01,10,21,15.30
2014,10,01,10,22,15.30
2014,10,01,10,23,15.30
2014,10,01,10,24,15.30
2014,10,01,10,25,15.20
2014,10,01,10,26,15.30
2014,10,01,10,27,15.30
2014,10,01,10,28,15.30
2014,10,01,10,29,15.30
2014,10,01,10,30,15.30
2014,10,01,10,31,15.30
2014,10,01,10,32,15.30
2014,10,01,10,33,15.20
2014,10,01,10,34,15.20
2014,10,01,10,35,15.10
2014,10,01,10,36,15.10
2014,10,01,10,37,15.10
2014,10,01,10,38,15.10
2014,10,01,10,39,15.10
2014,10,01,10,40,15.10
2014,10,01,10,41,15.10
2014,10,01,10,42,15.20
2014,10,01,10,43,15.20
2014,10,01,10,44,15.30
2014,10,01,10,45,15.30
2014,10,01,10,46,15.40
2014,10,01,10,47,15.40
2014,10,01,10,48,15.50
2014,10,01,10,49,15.60
2014,10,01,10,50,15.60
2014,10,01,10,51,15.70
2014,10,01,10,52,15.70
2014,10,01,10,53,15.70
2014,10,01,10,54,15.70
2014,10,01,10,55,15.70
2014,10,01,10,56,15.70
2014,10,01,10,57,15.70
2014,10,01,10,58,15.70
2014,10,01,10,59,15.70
2014,10,01,11,00,15.70
2014,10,01,11,01,15.70
2014,10,01,11,02,15.80
2014,10,01,11,03,15.80
2014,10,01,11,04,15.80
2014,10,01,11,05,15.80
2014,10,01,11,06,15.80
2014,10,01,11,07,15.80
2014,10,01,11,08,15.80
2014,10,01,11,09,15.80
2014,10,01,11,10,15.80
2014,10,01,11,11,15.70
2014,10,01,11,12,15.70
2014,10,01,11,13,15.70
2014,10,01,11,14,15.70
2014,10,01,11,15,15.70
2014,10,01,11,16,15.70
2014,10,01,11,17,15.70
2014,10,01,11,18,15.70
2014,10,01,11,19,15.70
2014,10,01,11,20,15.70
2014,10,01,11,21,15.70
2014,10,01,11,22,15.70
2014,10,01,11,23,15.70
2014,10,01,11,24,15.70
2014,10,01,11,25,15.70
2014,10,01,11,26,15.70
2014,10,01,11,27,15.70
2014,10,01,11,28,15.70
2014,10,01,11,29,15.70
2014,10,01,11,30,15.70
2014,10,01,11,31,15.60
2014,10,01,11,32,15.60
2014,10,01,11,33,15.60
2014,10,01,11,34,15.70
2014,10,01,11,35,15.80
2014,10,01,11,36,15.80
2014,10,01,11,37,15.80
2014,10,01,11,38,15.80
2014,10,01,11,39,15.80
2014,10,01,11,40,15.80
2014,10,01,11,41,15.90
2014,10,01,11,42,15.80
2014,10,01,11,43,15.80
2014,10,01,11,44,15.80
2014,10,01,11,45,15.80
2014,10,01,11,46,15.80
2014,10,01,11,47,15.90
2014,10,01,11,48,15.90
2014,10,01,11,49,15.90
2014,10,01,11,50,15.90
2014,10,01,11,51,15.90
2014,10,01,11,52,15.90
2014,10,01,11,53,15.90
2014,10,01,11,54,15.90
2014,10,01,11,55,16.00
2014,10,01,11,56,16.10
2014,10,01,11,57,16.10
2014,10,01,11,58,16.10
2014,10,01,11,59,16.20
2014,10,01,12,00,16.20
2014,10,01,12,01,16.10
2014,10,01,12,02,16.10
2014,10,01,12,03,16.00
2014,10,01,12,04,16.00
2014,10,01,12,05,16.10
2014,10,01,12,06,16.10
2014,10,01,12,07,16.10
2014,10,01,12,08,16.00
2014,10,01,12,09,16.00
2014,10,01,12,10,16.10
2014,10,01,12,11,16.10
2014,10,01,12,12,16.20
2014,10,01,12,13,16.20
2014,10,01,12,14,16.30
2014,10,01,12,15,16.30
2014,10,01,12,16,16.40
2014,10,01,12,17,16.40
2014,10,01,12,18,16.50
2014,10,01,12,19,16.40
2014,10,01,12,20,16.40
2014,10,01,12,21,16.50
2014,10,01,12,22,16.50
2014,10,01,12,23,16.60
2014,10,01,12,24,16.60
2014,10,01,12,25,16.70
2014,10,01,12,26,16.60
2014,10,01,12,27,16.70
2014,10,01,12,28,16.70
2014,10,01,12,29,16.70
2014,10,01,12,30,16.70
2014,10,01,12,31,16.60
2014,10,01,12,32,16.50
2014,10,01,12,33,16.50
2014,10,01,12,34,16.40
2014,10,01,12,35,16.30
2014,10,01,12,36,16.30
2014,10,01,12,37,16.40
2014,10,01,12,38,16.40
2014,10,01,12,39,16.50
2014,10,01,12,40,16.60
2014,10,01,12,41,16.60
2014,10,01,12,42,16.60
2014,10,01,12,43,16.60
2014,10,01,12,44,16.60
2014,10,01,12,45,16.70
2014,10,01,12,46,16.70
2014,10,01,12,47,16.80
2014,10,01,12,48,16.80
2014,10,01,12,49,16.80
2014,10,01,12,50,16.80
2014,10,01,12,51,16.90
2014,10,01,12,52,17.00
2014,10,01,12,53,17.10
2014,10,01,12,54,17.20
2014,10,01,12,55,17.30
2014,10,01,12,56,17.40
2014,10,01,12,57,17.40
2014,10,01,12,58,17.50
2014,10,01,12,59,17.50
2014,10,01,13,00,17.50
2014,10,01,13,01,17.40
2014,10,01,13,02,17.40
2014,10,01,13,03,17.40
2014,10,01,13,04,17.40
2014,10,01,13,05,17.40
2014,10,01,13,06,17.30
2014,10,01,13,07,17.30
2014,10,01,13,08,17.30
2014,10,01,13,09,17.30
2014,10,01,13,10,17.20
2014,10,01,13,11,17.20
2014,10,01,13,12,17.20
2014,10,01,13,13,17.10
2014,10,01,13,14,17.10
2014,10,01,13,15,17.10
2014,10,01,13,16,17.10
2014,10,01,13,17,17.10
2014,10,01,13,18,17.00
2014,10,01,13,19,17.00
2014,10,01,13,20,16.90
2014,10,01,13,21,16.90
2014,10,01,13,22,16.90
2014,10,01,13,23,16.80
2014,10,01,13,24,16.80
2014,10,01,13,25,16.70
2014,10,01,13,26,16.70
2014,10,01,13,27,16.60
2014,10,01,13,28,16.70
2014,10,01,13,29,16.80
2014,10,01,13,30,16.90
2014,10,01,13,31,17.00
2014,10,01,13,32,17.20
2014,10,01,13,33,17.30
2014,10,01,13,34,17.40
2014,10,01,13,35,17.40
2014,10,01,13,36,17.50
2014,10,01,13,37,17.50
2014,10,01,13,38,17.60
2014,10,01,13,39,17.60
2014,10,01,13,40,17.50
2014,10,01,13,41,17.50
2014,10,01,13,42,17.40
2014,10,01,13,43,17.40
2014,10,01,13,44,17.40
2014,10,01,13,45,17.40
2014,10,01,13,46,17.40
2014,10,01,13,47,17.40
2014,10,01,13,48,17.50
2014,10,01,13,49,17.60
2014,10,01,13,50,17.60
2014,10,01,13,51,17.60
2014,10,01,13,52,17.60
2014,10,01,13,53,17.60
2014,10,01,13,54,17.50
2014,10,01,13,55,17.50
2014,10,01,13,56,17.40
2014,10,01,13,57,17.30
2014,10,01,13,58,17.30
2014,10,01,13,59,17.10
2014,10,01,14,00,17.00
2014,10,01,14,01,16.90
2014,10,01,14,02,16.90
2014,10,01,14,03,16.90
2014,10,01,14,04,16.90
2014,10,01,14,05,16.90
2014,10,01,14,06,16.80
2014,10,01,14,07,16.80
2014,10,01,14,08,16.80
2014,10,01,14,09,16.80
2014,10,01,14,10,16.80
2014,10,01,14,11,16.80
2014,10,01,14,12,16.90
2014,10,01,14,13,16.90
2014,10,01,14,14,17.00
2014,10,01,14,15,16.90
2014,10,01,14,16,16.90
2014,10,01,14,17,16.90
2014,10,01,14,18,16.90
2014,10,01,14,19,16.80
2014,10,01,14,20,16.80
2014,10,01,14,21,16.80
2014,10,01,14,22,16.80
2014,10,01,14,23,16.90
2014,10,01,14,24,17.00
2014,10,01,14,25,17.10
2014,10,01,14,26,17.10
2014,10,01,14,27,17.10
2014,10,01,14,28,17.20
2014,10,01,14,29,17.10
2014,10,01,14,30,17.10
2014,10,01,14,31,17.00
2014,10,01,14,32,16.90
2014,10,01,14,33,16.80
2014,10,01,14,34,16.70
2014,10,01,14,35,16.70
2014,10,01,14,36,16.80
2014,10,01,14,37,16.80
2014,10,01,14,38,16.90
2014,10,01,14,39,16.80
2014,10,01,14,40,16.80
2014,10,01,14,41,16.70
2014,10,01,14,42,16.80
2014,10,01,14,43,16.80
2014,10,01,14,44,16.90
2014,10,01,14,45,16.90
2014,10,01,14,46,16.90
2014,10,01,14,47,16.90
2014,10,01,14,48,16.90
2014,10,01,14,49,16.90
2014,10,01,14,50,16.80
2014,10,01,14,51,16.70
2014,10,01,14,52,16.70
2014,10,01,14,53,16.80
2014,10,01,14,54,16.80
2014,10,01,14,55,16.80
2014,10,01,14,56,16.80
2014,10,01,14,57,16.80
2014,10,01,14,58,16.80
2014,10,01,14,59,16.80
2014,10,01,15,00,16.70
2014,10,01,15,01,16.70
2014,10,01,15,02,16.70
2014,10,01,15,03,16.70
2014,10,01,15,04,16.70
2014,10,01,15,05,16.70
2014,10,01,15,06,16.60
2014,10,01,15,07,16.60
2014,10,01,15,08,16.60
2014,10,01,15,09,16.70
2014,10,01,15,10,16.70
2014,10,01,15,11,16.70
2014,10,01,15,12,16.70
2014,10,01,15,13,16.70
2014,10,01,15,14,16.60
2014,10,01,15,15,16.60
2014,10,01,15,16,16.60
2014,10,01,15,17,16.70
2014,10,01,15,18,16.70
2014,10,01,15,19,16.70
2014,10,01,15,20,16.70
2014,10,01,15,21,16.70
2014,10,01,15,22,16.70
2014,10,01,15,23,16.70
2014,10,01,15,24,16.70
2014,10,01,15,25,16.70
2014,10,01,15,26,16.80
2014,10,01,15,27,16.80
2014,10,01,15,28,16.80
2014,10,01,15,29,16.80
2014,10,01,15,30,16.80
2014,10,01,15,31,16.80
2014,10,01,15,32,16.80
2014,10,01,15,33,16.80
2014,10,01,15,34,16.70
2014,10,01,15,35,16.70
2014,10,01,15,36,16.70
2014,10,01,15,37,16.70
2014,10,01,15,38,16.70
2014,10,01,15,39,16.70
2014,10,01,15,40,16.70
2014,10,01,15,41,16.70
2014,10,01,15,42,16.70
2014,10,01,15,43,16.70
2014,10,01,15,44,16.70
2014,10,01,15,45,16.70
2014,10,01,15,46,16.80
2014,10,01,15,47,16.80
2014,10,01,15,48,16.80
2014,10,01,15,49,16.70
2014,10,01,15,50,16.70
2014,10,01,15,51,16.60
2014,10,01,15,52,16.60
2014,10,01,15,53,16.60
2014,10,01,15,54,16.60
2014,10,01,15,55,16.60
2014,10,01,15,56,16.60
2014,10,01,15,57,16.60
2014,10,01,15,58,16.70
2014,10,01,15,59,16.70
2014,10,01,16,00,16.60
2014,10,01,16,01,16.60
2014,10,01,16,02,16.60
2014,10,01,16,03,16.60
2014,10,01,16,04,16.60
2014,10,01,16,05,16.60
2014,10,01,16,06,16.60
2014,10,01,16,07,16.60
2014,10,01,16,08,16.70
2014,10,01,16,09,16.70
2014,10,01,16,10,16.70
2014,10,01,16,11,16.70
2014,10,01,16,12,16.60
2014,10,01,16,13,16.50
2014,10,01,16,14,16.40
2014,10,01,16,15,16.40
2014,10,01,16,16,16.30
2014,10,01,16,17,16.30
2014,10,01,16,18,16.30
2014,10,01,16,19,16.30
2014,10,01,16,20,16.30
2014,10,01,16,21,16.30
2014,10,01,16,22,16.30
2014,10,01,16,23,16.20
2014,10,01,16,24,16.10
2014,10,01,16,25,16.10
2014,10,01,16,26,16.00
2014,10,01,16,27,15.90
2014,10,01,16,28,15.80
2014,10,01,16,29,15.70
2014,10,01,16,30,15.70
2014,10,01,16,31,15.60
2014,10,01,16,32,15.60
2014,10,01,16,33,15.60
2014,10,01,16,34,15.50
2014,10,01,16,35,15.50
2014,10,01,16,36,15.50
2014,10,01,16,37,15.60
2014,10,01,16,38,15.60
2014,10,01,16,39,15.50
2014,10,01,16,40,15.50
2014,10,01,16,41,15.50
2014,10,01,16,42,15.50
2014,10,01,16,43,15.50
2014,10,01,16,44,15.50
2014,10,01,16,45,15.40
2014,10,01,16,46,15.40
2014,10,01,16,47,15.40
2014,10,01,16,48,15.40
2014,10,01,16,49,15.30
2014,10,01,16,50,15.30
2014,10,01,16,51,15.30
2014,10,01,16,52,15.30
2014,10,01,16,53,15.30
2014,10,01,16,54,15.30
2014,10,01,16,55,15.30
2014,10,01,16,56,15.30
2014,10,01,16,57,15.30
2014,10,01,16,58,15.30
2014,10,01,16,59,15.30
2014,10,01,17,00,15.30
2014,10,01,17,01,15.30
2014,10,01,17,02,15.30
2014,10,01,17,03,15.30
2014,10,01,17,04,15.30
2014,10,01,17,05,15.30
2014,10,01,17,06,15.30
2014,10,01,17,07,15.30
2014,10,01,17,08,15.30
2014,10,01,17,09,15.30
2014,10,01,17,10,15.30
2014,10,01,17,11,15.30
2014,10,01,17,12,15.30
2014,10,01,17,13,15.30
2014,10,01,17,14,15.30
2014,10,01,17,15,15.30
2014,10,01,17,16,15.30
2014,10,01,17,17,15.30
2014,10,01,17,18,15.30
2014,10,01,17,19,15.20